Previsão horária em Barnstaple

Hoje, 26 Julho, Segunda-feira

Tempo Temperatura Precipitação Vento Pressão Humidade
00:00 +15°C° 0 mm 2 m/s 751 mmHg 92%
01:00 +14°C° 0 mm 3 m/s 751 mmHg 92%
02:00 +13°C° 0 mm 3 m/s 751 mmHg 92%
03:00 +13°C° 0 mm 3 m/s 751 mmHg 92%
04:00 +15°C° 0 mm 2 m/s 751 mmHg 91%
05:00 +15°C° 0 mm 2 m/s 751 mmHg 90%
06:00 +16°C° 0 mm 1 m/s 751 mmHg 89%
07:00 +18°C° 0 mm 2 m/s 751 mmHg 84%
08:00 +19°C° 0 mm 2 m/s 751 mmHg 79%
09:00 +21°C° 0 mm 3 m/s 751 mmHg 74%
10:00 +21°C° 0.5 mm 3 m/s 751 mmHg 76%
11:00 +22°C° 0.5 mm 4 m/s 751 mmHg 78%
12:00 +22°C° 0.5 mm 4 m/s 751 mmHg 80%
13:00 +22°C° 0.3 mm 4 m/s 751 mmHg 81%
14:00 +21°C° 0.3 mm 5 m/s 751 mmHg 82%
15:00 +21°C° 0.3 mm 5 m/s 751 mmHg 82%
16:00 +21°C° 0.1 mm 5 m/s 751 mmHg 84%
17:00 +20°C° 0.1 mm 4 m/s 751 mmHg 86%
18:00 +20°C° 0.1 mm 4 m/s 750 mmHg 87%
19:00 +19°C° 0 mm 4 m/s 751 mmHg 89%
20:00 +18°C° 0 mm 3 m/s 751 mmHg 92%
21:00 +17°C° 0 mm 3 m/s 751 mmHg 94%
22:00 +17°C° 0.2 mm 3 m/s 751 mmHg 93%
23:00 +17°C° 0.2 mm 3 m/s 750 mmHg 92%

Amanhã, 27 Julho, Terça-feira

Tempo Temperatura Precipitação Vento Pressão Humidade
00:00 +17°C° 0.2 mm 3 m/s 750 mmHg 91%
01:00 +15°C° 0.2 mm 4 m/s 750 mmHg 92%
02:00 +15°C° 0.2 mm 4 m/s 750 mmHg 93%
03:00 +15°C° 0.2 mm 5 m/s 750 mmHg 95%
04:00 +15°C° 0 mm 5 m/s 749 mmHg 94%
05:00 +14°C° 0 mm 4 m/s 749 mmHg 94%
06:00 +14°C° 0 mm 4 m/s 749 mmHg 93%
07:00 +15°C° 0.1 mm 5 m/s 749 mmHg 90%
08:00 +16°C° 0.1 mm 5 m/s 749 mmHg 87%
09:00 +17°C° 0.1 mm 6 m/s 749 mmHg 83%
10:00 +17°C° 0.3 mm 6 m/s 749 mmHg 84%
11:00 +17°C° 0.3 mm 6 m/s 749 mmHg 85%
12:00 +17°C° 0.3 mm 6 m/s 749 mmHg 86%
13:00 +17°C° 0.3 mm 7 m/s 749 mmHg 86%
14:00 +17°C° 0.3 mm 7 m/s 749 mmHg 86%
15:00 +17°C° 0.3 mm 7 m/s 749 mmHg 86%
16:00 +17°C° 0.2 mm 7 m/s 749 mmHg 88%
17:00 +16°C° 0.2 mm 7 m/s 749 mmHg 89%
18:00 +16°C° 0.2 mm 7 m/s 749 mmHg 91%
19:00 +16°C° 0.2 mm 7 m/s 749 mmHg 92%
20:00 +15°C° 0.2 mm 6 m/s 749 mmHg 93%
21:00 +14°C° 0.2 mm 6 m/s 750 mmHg 95%
22:00 +14°C° 0.1 mm 6 m/s 750 mmHg 94%
23:00 +14°C° 0.1 mm 5 m/s 750 mmHg 93%

Depois de amanhã, 28 Julho, Quarta-feira

Tempo Temperatura Precipitação Vento Pressão Humidade
00:00 +14°C° 0.1 mm 5 m/s 750 mmHg 93%
01:00 +14°C° 0.2 mm 5 m/s 749 mmHg 93%
02:00 +13°C° 0.2 mm 5 m/s 749 mmHg 93%
03:00 +13°C° 0.2 mm 5 m/s 749 mmHg 93%
04:00 +13°C° 0.3 mm 5 m/s 749 mmHg 92%
05:00 +13°C° 0.3 mm 6 m/s 749 mmHg 92%
06:00 +14°C° 0.3 mm 6 m/s 749 mmHg 91%
07:00 +14°C° 0.4 mm 6 m/s 749 mmHg 87%
08:00 +15°C° 0.4 mm 7 m/s 749 mmHg 84%
09:00 +16°C° 0.4 mm 7 m/s 749 mmHg 80%
10:00 +17°C° 0.5 mm 8 m/s 749 mmHg 78%
11:00 +17°C° 0.5 mm 8 m/s 749 mmHg 75%
12:00 +17°C° 0.5 mm 9 m/s 749 mmHg 73%
13:00 +17°C° 0.3 mm 9 m/s 749 mmHg 70%
14:00 +17°C° 0.3 mm 9 m/s 750 mmHg 68%
15:00 +17°C° 0.3 mm 9 m/s 750 mmHg 66%
16:00 +17°C° 0.1 mm 9 m/s 750 mmHg 69%
17:00 +16°C° 0.1 mm 9 m/s 750 mmHg 72%
18:00 +16°C° 0.1 mm 9 m/s 750 mmHg 76%
19:00 +15°C° 0.1 mm 8 m/s 750 mmHg 77%
20:00 +13°C° 0.1 mm 8 m/s 750 mmHg 79%
21:00 +14°C° 0.1 mm 7 m/s 751 mmHg 81%
22:00 +12°C° 0.1 mm 7 m/s 751 mmHg 83%
23:00 +12°C° 0.1 mm 7 m/s 751 mmHg 86%

29 Julho, Quinta-feira

Tempo Temperatura Precipitação Vento Pressão Humidade
00:00 +13°C° 0.1 mm 6 m/s 750 mmHg 88%
01:00 +11°C° 0.3 mm 6 m/s 750 mmHg 90%
02:00 +12°C° 0.3 mm 5 m/s 750 mmHg 91%
03:00 +12°C° 0.3 mm 5 m/s 750 mmHg 93%
04:00 +12°C° 0.7 mm 5 m/s 750 mmHg 93%
05:00 +12°C° 0.7 mm 5 m/s 750 mmHg 93%
06:00 +13°C° 0.7 mm 5 m/s 750 mmHg 94%
07:00 +13°C° 0.3 mm 5 m/s 750 mmHg 90%
08:00 +14°C° 0.3 mm 5 m/s 750 mmHg 87%
09:00 +15°C° 0.3 mm 4 m/s 750 mmHg 83%
10:00 +15°C° 0.5 mm 4 m/s 750 mmHg 83%
11:00 +15°C° 0.5 mm 5 m/s 750 mmHg 82%
12:00 +15°C° 0.5 mm 5 m/s 750 mmHg 82%
13:00 +15°C° 0.6 mm 5 m/s 749 mmHg 83%
14:00 +15°C° 0.6 mm 5 m/s 749 mmHg 85%
15:00 +14°C° 0.6 mm 5 m/s 749 mmHg 87%
16:00 +14°C° 0.2 mm 6 m/s 749 mmHg 85%
17:00 +15°C° 0.2 mm 6 m/s 749 mmHg 84%
18:00 +15°C° 0.2 mm 7 m/s 749 mmHg 82%
19:00 +14°C° 0.2 mm 7 m/s 749 mmHg 85%
20:00 +14°C° 0.2 mm 7 m/s 749 mmHg 88%
21:00 +12°C° 0.2 mm 7 m/s 749 mmHg 91%
22:00 +14°C° 0.3 mm 7 m/s 749 mmHg 92%
23:00 +14°C° 0.3 mm 7 m/s 749 mmHg 93%

30 Julho, Sexta-feira

Tempo Temperatura Precipitação Vento Pressão Humidade
00:00 +14°C° 0.3 mm 7 m/s 749 mmHg 94%
01:00 +14°C° 0.1 mm 7 m/s 749 mmHg 94%
02:00 +14°C° 0.1 mm 7 m/s 750 mmHg 94%
03:00 +14°C° 0.1 mm 7 m/s 750 mmHg 94%
04:00 +14°C° 0.1 mm 7 m/s 750 mmHg 92%
05:00 +15°C° 0.1 mm 6 m/s 750 mmHg 91%
06:00 +15°C° 0.1 mm 6 m/s 751 mmHg 90%
07:00 +15°C° 0 mm 6 m/s 751 mmHg 84%
08:00 +16°C° 0 mm 6 m/s 751 mmHg 79%
09:00 +17°C° 0 mm 6 m/s 751 mmHg 74%
10:00 +19°C° 0.1 mm 6 m/s 752 mmHg 72%
11:00 +19°C° 0.1 mm 6 m/s 752 mmHg 70%
12:00 +20°C° 0.1 mm 6 m/s 752 mmHg 69%
13:00 +18°C° 0.1 mm 7 m/s 752 mmHg 70%
14:00 +18°C° 0.1 mm 7 m/s 752 mmHg 71%
15:00 +18°C° 0.1 mm 7 m/s 752 mmHg 73%
16:00 +18°C° 0.1 mm 7 m/s 752 mmHg 76%
17:00 +17°C° 0.1 mm 7 m/s 752 mmHg 78%
18:00 +17°C° 0.1 mm 6 m/s 752 mmHg 81%
19:00 +16°C° 0.1 mm 6 m/s 752 mmHg 84%
20:00 +15°C° 0.1 mm 5 m/s 752 mmHg 86%
21:00 +14°C° 0.1 mm 5 m/s 752 mmHg 89%
22:00 +14°C° 0 mm 5 m/s 752 mmHg 90%
23:00 +13°C° 0 mm 5 m/s 752 mmHg 91%

31 Julho, Sábado

Tempo Temperatura Precipitação Vento Pressão Humidade
00:00 +13°C° 0 mm 4 m/s 752 mmHg 92%
01:00 +13°C° 0.1 mm 5 m/s 752 mmHg 92%
02:00 +12°C° 0.1 mm 5 m/s 752 mmHg 93%
03:00 +12°C° 0.1 mm 5 m/s 752 mmHg 93%
04:00 +13°C° 0.1 mm 5 m/s 752 mmHg 93%
05:00 +13°C° 0.1 mm 5 m/s 752 mmHg 93%
06:00 +13°C° 0.1 mm 5 m/s 752 mmHg 93%
07:00 +14°C° 0.1 mm 5 m/s 752 mmHg 89%
08:00 +15°C° 0.1 mm 6 m/s 752 mmHg 85%
09:00 +16°C° 0.1 mm 6 m/s 752 mmHg 82%
10:00 +17°C° 0.1 mm 6 m/s 752 mmHg 78%
11:00 +19°C° 0.1 mm 6 m/s 752 mmHg 75%
12:00 +19°C° 0.1 mm 6 m/s 752 mmHg 71%
13:00 +19°C° 0 mm 6 m/s 752 mmHg 70%
14:00 +18°C° 0 mm 7 m/s 752 mmHg 69%
15:00 +18°C° 0 mm 7 m/s 752 mmHg 68%
16:00 +19°C° 0 mm 6 m/s 752 mmHg 72%
17:00 +17°C° 0 mm 6 m/s 752 mmHg 75%
18:00 +17°C° 0 mm 5 m/s 752 mmHg 79%
19:00 +16°C° 0.1 mm 5 m/s 752 mmHg 84%
20:00 +15°C° 0.1 mm 4 m/s 752 mmHg 88%
21:00 +14°C° 0.1 mm 4 m/s 752 mmHg 93%
22:00 +14°C° 0.1 mm 4 m/s 752 mmHg 93%
23:00 +14°C° 0.1 mm 4 m/s 752 mmHg 93%
Mostrar mais